R1OCD-13 Weather Reports


time (UTC)temp
C
wind
direction
speed
KPH
gust
KPH
rain 1hr
cm
rain 24hr
cm
rain mn
cm
humidity
%
barometer
mb
20260503233434 0 0 0.0 0.0 0.00 0.00 0.00 99 1006.0
20260503231920 0 0 0.0 0.0 0.00 0.00 0.00 99 1005.0
20260503230417 1 0 0.0 0.0 0.00 0.00 0.00 99 1005.0
20260503224911 1 0 0.0 0.0 0.00 0.00 0.00 99 1005.0
20260503223405 2 0 0.0 0.0 0.00 0.00 0.00 99 1005.0
20260503221850 2 0 0.0 0.0 0.00 0.00 0.00 99 1005.0
20260503213339 2 0 0.0 0.0 0.00 0.00 0.00 99 1005.0
20260503211825 3 0 0.0 0.0 0.00 0.00 0.00 99 1005.0
20260503210311 3 0 0.0 0.0 0.00 0.00 0.00 99 1005.0
20260503204806 3 0 0.0 0.0 0.00 0.00 0.00 99 1005.0
20260503203256 3 0 0.0 0.0 0.00 0.00 0.00 99 1005.0
20260503201753 3 0 0.0 0.0 0.00 0.00 0.00 99 1005.0
20260503200239 5 0 0.0 0.0 0.00 0.00 0.00 99 1005.0
20260503194734 5 0 0.0 0.0 0.00 0.00 0.00 99 1005.0
20260503193219 5 0 0.0 0.0 0.00 0.00 0.00 99 1005.0
20260503184654 5 0 0.0 0.0 0.00 0.00 0.00 99 1005.0
20260503183139 5 0 0.0 0.0 0.00 0.00 0.00 99 1005.0
20260503181626 5 0 0.0 0.0 0.00 0.00 0.00 99 1004.0
20260503180112 6 0 0.0 0.0 0.00 0.00 0.00 99 1004.0
20260503174558 6 0 0.0 0.0 0.00 0.00 0.00 99 1004.0
20260503131353 11 0 0.0 0.0 0.00 0.00 0.00 54 1003.0
20260503081044 10 0 0.0 0.0 0.00 0.00 0.00 62 1001.0
20260503072535 8 0 0.0 0.0 0.00 0.00 0.00 66 1001.0
20260503071021 8 0 0.0 0.0 0.00 0.00 0.00 66 1001.0
20260503053932 8 0 0.0 0.0 0.00 0.00 0.00 76 1001.0
20260503052418 7 0 0.0 0.0 0.00 0.00 0.00 81 1000.0
20260503050904 7 0 0.0 0.0 0.00 0.00 0.00 81 1000.0
20260503045358 7 0 0.0 0.0 0.00 0.00 0.00 76 1000.0
20260503043844 7 0 0.0 0.0 0.00 0.00 0.00 76 1000.0
20260503042330 7 0 0.0 0.0 0.00 0.00 0.00 81 1000.0
20260503040816 7 0 0.0 0.0 0.00 0.00 0.00 81 1000.0
20260503035304 7 0 0.0 0.0 0.00 0.00 0.00 81 1000.0
20260503023728 8 0 0.0 0.0 0.00 0.00 0.00 76 1000.0
20260503022214 8 0 0.0 0.0 0.00 0.00 0.00 87 999.0
20260503020700 8 0 0.0 0.0 0.00 0.00 0.00 87 999.0
20260503015157 10 0 0.0 0.0 0.00 0.00 0.00 81 1000.0
20260503013652 10 0 0.0 0.0 0.00 0.00 0.00 81 1000.0
20260503012138 11 0 0.0 0.0 0.00 0.00 0.00 76 999.0
20260503010624 11 0 0.0 0.0 0.00 0.00 0.00 76 1000.0
20260503005111 11 0 0.0 0.0 0.00 0.00 0.00 71 1000.0
20260503003557 11 0 0.0 0.0 0.00 0.00 0.00 71 1000.0
20260503002056 12 0 0.0 0.0 0.00 0.00 0.00 62 999.0
20260503000550 12 0 0.0 0.0 0.00 0.00 0.00 62 1000.0
20260502235035 12 0 0.0 0.0 0.00 0.00 0.00 58 1001.0